When you browse on this site, cookies collect data to enhance your experience and personalize the content and advertising you see.
Visit our Privacy Policy to learn more. By continuing to use the site, you agree to this use of cookies and data.
  • In Hungary
  • List of Countries
  • For 7 days
  • Water Temperature
  • Satellite Maps
  • Weather Map
  • News
  • Weather Widgets
  • user-avatar
    Login

    Hourly Weather San Roque

    Today, 19 November, Monday

    Time Temperature Precipitation Wind Pressure Humidity
    00:00 +13°C° 0 mm 5 mps 735 mmHg 92%
    01:00 +13°C° 0.6 mm 5 mps 735 mmHg 92%
    02:00 +13°C° 0.6 mm 5 mps 735 mmHg 91%
    03:00 +13°C° 0.6 mm 5 mps 735 mmHg 91%
    04:00 +12°C° 0.4 mm 5 mps 735 mmHg 92%
    05:00 +12°C° 0.4 mm 5 mps 735 mmHg 92%
    06:00 +12°C° 0.4 mm 5 mps 736 mmHg 92%
    07:00 +13°C° 0.2 mm 5 mps 736 mmHg 90%
    08:00 +13°C° 0.2 mm 6 mps 736 mmHg 87%
    09:00 +14°C° 0.2 mm 6 mps 737 mmHg 84%
    10:00 +14°C° 0.2 mm 6 mps 737 mmHg 81%
    11:00 +15°C° 0.2 mm 6 mps 737 mmHg 78%
    12:00 +16°C° 0.2 mm 6 mps 737 mmHg 74%
    13:00 +16°C° 0.2 mm 6 mps 737 mmHg 74%
    14:00 +15°C° 0.2 mm 6 mps 737 mmHg 73%
    15:00 +15°C° 0.2 mm 6 mps 737 mmHg 73%
    16:00 +15°C° 0.1 mm 6 mps 737 mmHg 76%
    17:00 +14°C° 0.1 mm 5 mps 738 mmHg 80%
    18:00 +13°C° 0.1 mm 5 mps 738 mmHg 84%
    19:00 +13°C° 0.1 mm 5 mps 738 mmHg 85%
    20:00 +12°C° 0.1 mm 5 mps 738 mmHg 86%
    21:00 +12°C° 0.1 mm 5 mps 739 mmHg 86%
    22:00 +12°C° 0.2 mm 5 mps 738 mmHg 88%
    23:00 +12°C° 0.2 mm 5 mps 738 mmHg 89%

    Tomorrow, 20 November, Tuesday

    Time Temperature Precipitation Wind Pressure Humidity
    00:00 +12°C° 0.2 mm 5 mps 738 mmHg 90%
    01:00 +13°C° 0.6 mm 6 mps 738 mmHg 90%
    02:00 +13°C° 0.6 mm 6 mps 738 mmHg 90%
    03:00 +13°C° 0.6 mm 6 mps 737 mmHg 90%
    04:00 +13°C° 0.4 mm 6 mps 737 mmHg 90%
    05:00 +13°C° 0.4 mm 5 mps 737 mmHg 90%
    06:00 +13°C° 0.4 mm 5 mps 737 mmHg 90%
    07:00 +13°C° 0.4 mm 5 mps 738 mmHg 89%
    08:00 +14°C° 0.4 mm 6 mps 738 mmHg 89%
    09:00 +14°C° 0.4 mm 7 mps 739 mmHg 88%
    10:00 +15°C° 0.3 mm 7 mps 739 mmHg 85%
    11:00 +15°C° 0.3 mm 7 mps 740 mmHg 82%
    12:00 +15°C° 0.3 mm 8 mps 740 mmHg 79%
    13:00 +15°C° 0.1 mm 8 mps 740 mmHg 77%
    14:00 +15°C° 0.1 mm 8 mps 741 mmHg 75%
    15:00 +15°C° 0.1 mm 8 mps 741 mmHg 73%
    16:00 +14°C° 0.1 mm 7 mps 741 mmHg 77%
    17:00 +14°C° 0.1 mm 7 mps 741 mmHg 80%
    18:00 +13°C° 0.1 mm 6 mps 742 mmHg 84%
    19:00 +13°C° 0.1 mm 6 mps 742 mmHg 85%
    20:00 +13°C° 0.1 mm 5 mps 743 mmHg 87%
    21:00 +13°C° 0.1 mm 5 mps 743 mmHg 88%
    22:00 +12°C° 0.2 mm 5 mps 743 mmHg 89%
    23:00 +12°C° 0.2 mm 4 mps 743 mmHg 90%

    Day after tomorrow, 21 November, Wednesday

    Time Temperature Precipitation Wind Pressure Humidity
    00:00 +12°C° 0.2 mm 4 mps 744 mmHg 90%
    01:00 +12°C° 0.4 mm 4 mps 744 mmHg 91%
    02:00 +12°C° 0.4 mm 4 mps 744 mmHg 91%
    03:00 +12°C° 0.4 mm 4 mps 744 mmHg 92%
    04:00 +12°C° 0.6 mm 4 mps 743 mmHg 92%
    05:00 +13°C° 0.6 mm 4 mps 743 mmHg 92%
    06:00 +13°C° 0.6 mm 4 mps 743 mmHg 93%
    07:00 +13°C° 1.5 mm 4 mps 744 mmHg 92%
    08:00 +13°C° 1.5 mm 4 mps 744 mmHg 92%
    09:00 +14°C° 1.5 mm 4 mps 745 mmHg 91%
    10:00 +14°C° 1.1 mm 4 mps 745 mmHg 90%
    11:00 +14°C° 1.1 mm 4 mps 745 mmHg 89%
    12:00 +15°C° 1.1 mm 4 mps 745 mmHg 88%
    13:00 +15°C° 0.5 mm 4 mps 745 mmHg 87%
    14:00 +16°C° 0.5 mm 3 mps 744 mmHg 87%
    15:00 +16°C° 0.5 mm 3 mps 744 mmHg 87%
    16:00 +14°C° 0.2 mm 3 mps 744 mmHg 88%
    17:00 +15°C° 0.2 mm 2 mps 745 mmHg 89%
    18:00 +15°C° 0.2 mm 2 mps 745 mmHg 91%
    19:00 +15°C° 0.3 mm 2 mps 745 mmHg 91%
    20:00 +15°C° 0.3 mm 2 mps 745 mmHg 91%
    21:00 +14°C° 0.3 mm 2 mps 746 mmHg 91%
    22:00 +14°C° 0.5 mm 2 mps 746 mmHg 91%
    23:00 +14°C° 0.5 mm 2 mps 746 mmHg 92%

    22 November, Thursday

    Time Temperature Precipitation Wind Pressure Humidity
    00:00 +14°C° 0.5 mm 2 mps 746 mmHg 92%
    01:00 +14°C° 0.4 mm 2 mps 746 mmHg 93%
    02:00 +14°C° 0.4 mm 2 mps 746 mmHg 93%
    03:00 +14°C° 0.4 mm 1 mps 746 mmHg 93%
    04:00 +14°C° 0.1 mm 1 mps 745 mmHg 93%
    05:00 +14°C° 0.1 mm 2 mps 745 mmHg 93%
    06:00 +14°C° 0.1 mm 2 mps 745 mmHg 93%
    07:00 +14°C° 0.1 mm 2 mps 746 mmHg 91%
    08:00 +15°C° 0.1 mm 2 mps 746 mmHg 90%
    09:00 +15°C° 0.1 mm 2 mps 746 mmHg 88%
    10:00 +16°C° 0.2 mm 2 mps 746 mmHg 86%
    11:00 +16°C° 0.2 mm 2 mps 746 mmHg 83%
    12:00 +17°C° 0.2 mm 2 mps 745 mmHg 81%
    13:00 +16°C° 0.9 mm 2 mps 745 mmHg 83%
    14:00 +16°C° 0.9 mm 2 mps 745 mmHg 86%
    15:00 +15°C° 0.9 mm 2 mps 744 mmHg 89%
    16:00 +15°C° 0.4 mm 2 mps 744 mmHg 89%
    17:00 +14°C° 0.4 mm 3 mps 744 mmHg 89%
    18:00 +14°C° 0.4 mm 3 mps 745 mmHg 89%
    19:00 +13°C° 0 mm 3 mps 745 mmHg 89%
    20:00 +13°C° 0 mm 3 mps 745 mmHg 88%
    21:00 +13°C° 0 mm 3 mps 745 mmHg 88%
    22:00 +13°C° 0 mm 4 mps 744 mmHg 88%
    23:00 +13°C° 0 mm 4 mps 744 mmHg 87%

    23 November, Friday

    Time Temperature Precipitation Wind Pressure Humidity
    00:00 +12°C° 0 mm 4 mps 744 mmHg 87%
    01:00 +13°C° 0 mm 4 mps 743 mmHg 88%
    02:00 +13°C° 0 mm 4 mps 743 mmHg 88%
    03:00 +13°C° 0 mm 4 mps 742 mmHg 89%
    04:00 +13°C° 0.2 mm 4 mps 742 mmHg 88%
    05:00 +13°C° 0.2 mm 3 mps 742 mmHg 87%
    06:00 +13°C° 0.2 mm 3 mps 742 mmHg 85%
    07:00 +13°C° 0.4 mm 3 mps 742 mmHg 85%
    08:00 +13°C° 0.4 mm 3 mps 743 mmHg 84%
    09:00 +14°C° 0.4 mm 2 mps 743 mmHg 83%
    10:00 +15°C° 0.5 mm 2 mps 744 mmHg 82%
    11:00 +16°C° 0.5 mm 2 mps 744 mmHg 82%
    12:00 +16°C° 0.5 mm 2 mps 744 mmHg 81%
    13:00 +16°C° 0.1 mm 2 mps 744 mmHg 82%
    14:00 +17°C° 0.1 mm 2 mps 744 mmHg 82%
    15:00 +17°C° 0.1 mm 2 mps 744 mmHg 83%
    16:00 +16°C° 0 mm 2 mps 744 mmHg 86%
    17:00 +15°C° 0 mm 2 mps 744 mmHg 89%
    18:00 +15°C° 0 mm 1 mps 744 mmHg 91%
    19:00 +14°C° 0 mm 1 mps 745 mmHg 91%
    20:00 +14°C° 0 mm 1 mps 745 mmHg 91%
    21:00 +14°C° 0 mm 2 mps 746 mmHg 90%
    22:00 +14°C° 0 mm 2 mps 745 mmHg 90%
    23:00 +13°C° 0 mm 1 mps 745 mmHg 90%

    24 November, Saturday

    Time Temperature Precipitation Wind Pressure Humidity
    00:00 +13°C° 0 mm 1 mps 745 mmHg 90%
    01:00 +13°C° 0 mm 1 mps 745 mmHg 90%
    02:00 +13°C° 0 mm 1 mps 745 mmHg 90%
    03:00 +13°C° 0 mm 1 mps 745 mmHg 89%
    04:00 +13°C° 0 mm 1 mps 745 mmHg 89%
    05:00 +13°C° 0 mm 1 mps 745 mmHg 89%
    06:00 +13°C° 0 mm 1 mps 745 mmHg 89%
    07:00 +13°C° 0 mm 1 mps 746 mmHg 87%
    08:00 +14°C° 0 mm 1 mps 746 mmHg 86%
    09:00 +15°C° 0 mm 2 mps 747 mmHg 84%
    10:00 +16°C° 0 mm 2 mps 747 mmHg 80%
    11:00 +17°C° 0 mm 2 mps 746 mmHg 76%
    12:00 +18°C° 0 mm 2 mps 746 mmHg 73%
    13:00 +18°C° 0 mm 2 mps 746 mmHg 72%
    14:00 +18°C° 0 mm 2 mps 746 mmHg 72%
    15:00 +18°C° 0 mm 2 mps 746 mmHg 72%
    16:00 +17°C° 0 mm 2 mps 746 mmHg 77%
    17:00 +16°C° 0 mm 2 mps 746 mmHg 82%
    18:00 +15°C° 0 mm 2 mps 746 mmHg 87%
    19:00 +13°C° 0 mm 3 mps 746 mmHg 87%
    20:00 +13°C° 0 mm 3 mps 747 mmHg 87%
    21:00 +12°C° 0 mm 3 mps 747 mmHg 88%
    22:00 +12°C° 0 mm 3 mps 747 mmHg 88%
    23:00 +12°C° 0 mm 4 mps 747 mmHg 88%
    Show more